Regional Weather Roundup
Issued by NWS Northern Indiana

Home | Current Version | Previous Version | Graphics & Text | Print | Product List | Glossary Off
Versions: 1 2 3 4 5 6 7 8 9 10 11 12 13 14 15 16 17 18 19 20 21 22 23 24 25 26 27 28 29 30 31 32 33 34 35 36 37 38 39 40 41 42 43 44 45 46 47 48 49 50

311
ASUS43 KIWX 221210
RWRIWX

KIWX WEATHER ROUNDUP
NATIONAL WEATHER SERVICE NORTHERN INDIANA
800 AM EDT TUE AUG 22 2017

NOTE: "FAIR" INDICATES FEW OR NO CLOUDS BELOW 12,000 FEET WITH NO
SIGNIFICANT WEATHER AND/OR OBSTRUCTIONS TO VISIBILITY.

* THESE STATIONS ARE NOT UNDER NWS QUALITY CONTROL. THEY ALSO MAY NOT
  REPORT WEATHER SUCH AS PRECIPITATION OR FOG.

INZ001>027-221300-
NORTHERN INDIANA

CITY           SKY/WX    TMP DP  RH WIND       PRES   REMARKS
GARY*          CLOUDY    72  68  88 SW12      29.90R
VALPARAISO     CLOUDY    71  69  93 SW13      29.90F
6HR MIN TEMP:  71; 6HR MAX TEMP:  73; 6HR PCP:  0.36;

MICHIGAN CITY* CLOUDY    68  68 100 SW7       29.88S
LAPORTE*       LGT RAIN  68  67  96 SW8       29.89F
6HR MIN TEMP:  68; 6HR MAX TEMP:  72; 6HR PCP:  0.46;

KNOX*          CLOUDY    68  68 100 SW6       29.89F
SOUTH BEND     RAIN      68  68 100 SW10      29.88F FOG
6HR MIN TEMP:  68; 6HR MAX TEMP:  74; 6HR PCP:  0.61;

ELKHART*       RAIN      70  66  88 SW9       29.88F
GOSHEN         LGT RAIN  70  66  87 W10       29.88F
6HR MIN TEMP:  70; 6HR MAX TEMP:  74; 6HR PCP:  0.49;

MONTICELLO*    LGT RAIN  67  65  95 W3        29.93R
6HR MIN TEMP:  67; 6HR MAX TEMP:  73; 6HR PCP:  1.29;

LOGANSPORT*    CLOUDY    66  64  94 W7        29.94S
ROCHESTER*     LGT RAIN N/A N/A N/A W6        29.91S
WARSAW*        LGT RAIN  68  68 100 W10       29.90F
AUBURN*        RAIN      70  66  88 SW9       29.91R
FORT WAYNE     RAIN      70  67  90 W14       29.93R FOG
6HR MIN TEMP:  70; 6HR MAX TEMP:  73; 6HR PCP:  0.32;

HUNTINGTON*    LGT RAIN  68  67  96 W7        29.93F
6HR MIN TEMP:  68; 6HR MAX TEMP:  74; 6HR PCP:  0.35;

PERU/GRISSOM   CLOUDY    68  68 100 W7        29.93F
6HR MIN TEMP:  69; 6HR MAX TEMP:  74; 6HR PCP:  0.65;

MARION*        CLOUDY    68  66  94 NW8       29.95F

$$
INZ028>050-221300-
CENTRAL INDIANA

CITY           SKY/WX    TMP DP  RH WIND       PRES   REMARKS
LAFAYETTE      LGT RAIN  68  68 100 S3        29.94S
6HR MIN TEMP:  67; 6HR MAX TEMP:  73; 6HR PCP:  1.54;

KOKOMO*        LGT RAIN  68  67  96 W3        29.94F FOG
6HR MIN TEMP:  68; 6HR MAX TEMP:  73; 6HR PCP:  0.22;

MUNCIE*        CLOUDY    75  70  84 MISG      29.96R
6HR MIN TEMP:  74; 6HR MAX TEMP:  77; 6HR PCP: TRACE;

INDIANAPOLIS   CLOUDY    76  72  87 SW10      29.93S
6HR MIN TEMP:  73; 6HR MAX TEMP:  76;


$$
MIZ043>046-050>051-056>058-064>065-071>073-077>080-221300-
SOUTHWEST LOWER MICHIGAN

CITY           SKY/WX    TMP DP  RH WIND       PRES   REMARKS
BATTLE CREEK   RAIN      70  68  93 SW15      29.85F
6HR MIN TEMP:  69; 6HR MAX TEMP:  73; 6HR PCP:  0.16;

BENTON HARBOR  CLOUDY    73  69  87 W15G23    29.85S
6HR MIN TEMP:  70; 6HR MAX TEMP:  77; 6HR PCP:  0.11;

COLDWATER*     DRIZZLE   69  69 100 W15       29.86F
6HR MIN TEMP:  69; 6HR MAX TEMP:  73;

HILLSDALE*     LGT RAIN  70  64  83 W12G23    29.86F
HOLLAND        LGT RAIN  73  70  90 W13G23    29.81S
6HR MIN TEMP:  71; 6HR MAX TEMP:  75; 6HR PCP:  0.24;

GRAND RAPIDS   LGT RAIN  71  70  96 SW14      29.80S
6HR MIN TEMP:  71; 6HR MAX TEMP:  73; 6HR PCP:  0.09;

KALAMAZOO      LGT RAIN  70  67  90 SW10      29.85S FOG
6HR MIN TEMP:  70; 6HR MAX TEMP:  74; 6HR PCP:  0.24;

STURGIS*       LGT RAIN  68  67  96 W8G17     29.87F
6HR MIN TEMP:  68; 6HR MAX TEMP:  72; 6HR PCP:  0.49;

THREE RIVERS*  RAIN      70  69  96 SW8       29.87F
6HR MIN TEMP:  70; 6HR MAX TEMP:  75;


$$
OHZ001>008-015>018-024>025-221300-
NORTHWEST OHIO

CITY           SKY/WX    TMP DP  RH WIND       PRES   REMARKS
DEFIANCE       CLOUDY    71  68  90 SW8       29.90R
6HR MIN TEMP:  70; 6HR MAX TEMP:  73; 6HR PCP:  0.18;

FINDLAY        CLOUDY    75  67  76 SW9       29.89F
6HR MIN TEMP:  72; 6HR MAX TEMP:  75; 6HR PCP: TRACE;

TOLEDO EXPRESS LGT RAIN  71  71 100 SW7       29.87F
6HR MIN TEMP:  71; 6HR MAX TEMP:  73; 6HR PCP:  0.01;

TOLEDO METCALF LGT RAIN  73  71  93 SW10      29.88F FOG
6HR MIN TEMP:  73; 6HR MAX TEMP:  76; 6HR PCP: TRACE;

LIMA           CLOUDY    73  69  87 SW8       29.92F
6HR MIN TEMP:  73; 6HR MAX TEMP:  74;


$$
AND FOR LAKE MICHIGAN COASTAL AND OPEN LAKE BUOY OBSERVATIONS

STATION/POSITION TEMP    WIND        PRES    VSBY  WAVE
                 AIR SEA DIR/SP/G                  HT/PER
                 (F)     (DEG/KT/KT) (MB)    (MI)  (FT/S)
CALUMET HARBOR    70     210/  5/ 11 1011.0F
MICHIGAN CITY     70     210/ 19/ 21   N/A
BURNS HARBOR      71     220/ 13/ 16 1012.2S
SAINT JOSEPH      74     230/ 21/ 25 1011.5
SOUTH LAKE BUOY   72 71  300/ 17/ 21 1009.1R         4/ 6
4 MI NW BRIDGMAN  73 73  250/ 17/ 21 1010.9          5/ 5
MICHIGAN CITY     72 74  240/ 16/ 21   N/A           4/ 4

$$
&&




USA.gov is the U.S. government's official web portal to all federal, state and local government web resources and services.